Weather History for Williams, AZ

Change the Weather History Date:

Saturday, July 27, 2013

  Actual Average (KFLG) Record (KFLG)
Temperature  
Mean Temperature 67 °F 66 °F  
Max Temperature 77 °F 80 °F 93 °F (1947)
Min Temperature 57 °F 52 °F 36 °F (1913)
Degree Days  
Heating Degree Days 0 1  
Month to date heating degree days 32  
Since 1 July heating degree days 32  
Cooling Degree Days 2 2  
Month to date cooling degree days 54  
Year to date cooling degree days 71  
Growing Degree Days 17 (Base 50)    
Moisture  
Dew Point 56 °F    
Average Humidity 77    
Maximum Humidity 100    
Minimum Humidity 41    
Precipitation  
Precipitation 0.30 in 0.11 in 1.13 in (1905)
Month to date precipitation 2.14  
Year to date precipitation 10.61  
Snow  
Snow 0.00 in 0.00 in 0.00 in (2002)
Month to date snowfall 0.0  
Since 1 July snowfall 0.0  
Snow Depth -    
Sea Level Pressure  
Sea Level Pressure 30.38 in    
Wind  
Wind Speed 5 mph (South)    
Max Wind Speed 17 mph    
Max Gust Speed 21 mph    
Visibility 9 miles    
Events      
T = Trace of Precipitation, MM = Missing Value Source: NWS Daily Summary

Daily Weather History Graph

Daily Weather History Graph

Search for Another Location

Airport:

Trip Planner

Search our weather history database for the weather conditions in past years. The results will help you decide how hot, cold, wet, or windy it might be!

Date:

Astronomy

Jul. 27, 2013 Rise Set
Actual Time 5:34 AM MST 7:36 PM MST
Civil Twilight 5:05 AM MST 8:04 PM MST
Nautical Twilight 4:31 AM MST 8:38 PM MST
Astronomical Twilight 3:54 AM MST 9:15 PM MST
Moon 10:41 PM MST (7/27) 11:03 AM MST (7/27)
Length of Visible Light 14h 58m
Length of Day
14h 02m
Waning Gibbous, 70% of the Moon is Illuminated
Jul 27
Waning Gibbous
Jul 29
Last Quarter
Aug 6
New
Aug 14
First Quarter
Aug 20
Full

Hourly Weather History & Observations

Time (MST) Temp. Dew Point Humidity Pressure Visibility Wind Dir Wind Speed Gust Speed Precip Events Conditions
12:15 AM 59.0 °F 53.6 °F 82% 30.45 in 10.0 mi SE 5.8 mph - N/A   Clear
12:35 AM 59.0 °F 53.6 °F 82% 30.45 in 10.0 mi SSW 3.5 mph - N/A   Partly Cloudy
12:55 AM 59.0 °F 53.6 °F 82% 30.45 in 10.0 mi SE 3.5 mph - N/A   Clear
1:15 AM 59.0 °F 53.6 °F 82% 30.43 in 10.0 mi SSE 5.8 mph - N/A   Mostly Cloudy
1:35 AM 59.0 °F 53.6 °F 82% 30.43 in 10.0 mi Calm Calm - N/A   Mostly Cloudy
1:55 AM 59.0 °F 55.4 °F 88% 30.44 in 10.0 mi Calm Calm - N/A   Overcast
2:15 AM 59.0 °F 55.4 °F 88% 30.44 in 10.0 mi Calm Calm - N/A   Mostly Cloudy
2:35 AM 59.0 °F 55.4 °F 88% 30.43 in 10.0 mi ESE 4.6 mph - N/A   Partly Cloudy
2:55 AM 59.0 °F 53.6 °F 82% 30.43 in 10.0 mi SSE 4.6 mph - N/A   Clear
3:15 AM 59.0 °F 53.6 °F 82% 30.42 in 10.0 mi SSE 3.5 mph - N/A   Partly Cloudy
3:35 AM 57.2 °F 53.6 °F 88% 30.42 in 10.0 mi South 3.5 mph - N/A   Partly Cloudy
3:55 AM 57.2 °F 53.6 °F 88% 30.43 in 10.0 mi SSE 3.5 mph - N/A   Partly Cloudy
4:15 AM 57.2 °F 53.6 °F 88% 30.43 in 10.0 mi Calm Calm - N/A   Mostly Cloudy
4:35 AM 57.2 °F 55.4 °F 94% 30.43 in 10.0 mi Calm Calm - N/A   Overcast
4:55 AM 57.2 °F 55.4 °F 94% 30.42 in 10.0 mi SE 4.6 mph - N/A   Overcast
5:15 AM 57.2 °F 55.4 °F 94% 30.42 in 10.0 mi SSE 5.8 mph - N/A   Mostly Cloudy
5:35 AM 57.2 °F 55.4 °F 94% 30.42 in 10.0 mi SSE 5.8 mph - N/A   Scattered Clouds
5:55 AM 57.2 °F 53.6 °F 88% 30.42 in 10.0 mi SSE 4.6 mph - N/A   Clear
6:15 AM 57.2 °F 55.4 °F 94% 30.43 in 10.0 mi SSE 5.8 mph - N/A   Scattered Clouds
6:35 AM 57.2 °F 55.4 °F 94% 30.43 in 10.0 mi SSE 3.5 mph - N/A   Mostly Cloudy
6:55 AM 59.0 °F 53.6 °F 82% 30.43 in 10.0 mi South 4.6 mph - N/A   Scattered Clouds
7:15 AM 60.8 °F 55.4 °F 82% 30.43 in 10.0 mi SSE 5.8 mph - N/A   Mostly Cloudy
7:35 AM 64.4 °F 53.6 °F 68% 30.43 in 10.0 mi South 3.5 mph - N/A   Mostly Cloudy
7:55 AM 66.2 °F 51.8 °F 60% 30.43 in 10.0 mi Calm Calm - N/A   Mostly Cloudy
8:15 AM 68.0 °F 53.6 °F 60% 30.43 in 10.0 mi Calm Calm - N/A   Partly Cloudy
8:35 AM 68.0 °F 53.6 °F 60% 30.43 in 10.0 mi SSE 3.5 mph - N/A   Clear
8:55 AM 69.8 °F 53.6 °F 56% 30.42 in 10.0 mi Calm Calm - N/A   Clear
9:15 AM 71.6 °F 55.4 °F 57% 30.42 in 10.0 mi WNW 6.9 mph - N/A   Partly Cloudy
9:35 AM 71.6 °F 55.4 °F 57% 30.42 in 10.0 mi NW 4.6 mph - N/A   Partly Cloudy
9:55 AM 71.6 °F 55.4 °F 57% 30.42 in 10.0 mi WNW 4.6 mph - N/A   Scattered Clouds
10:15 AM 71.6 °F 55.4 °F 57% 30.41 in 10.0 mi West 3.5 mph - N/A   Partly Cloudy
10:35 AM 71.6 °F 55.4 °F 57% 30.41 in 10.0 mi West 8.1 mph - N/A   Mostly Cloudy
10:55 AM 73.4 °F 55.4 °F 53% 30.40 in 10.0 mi West 8.1 mph - N/A   Scattered Clouds
11:15 AM 73.4 °F 55.4 °F 53% 30.40 in 10.0 mi West 12.7 mph 19.6 mph N/A   Mostly Cloudy
11:35 AM 75.2 °F 55.4 °F 50% 30.39 in 10.0 mi SW 10.4 mph - N/A   Partly Cloudy
11:55 AM 75.2 °F 55.4 °F 50% 30.38 in 10.0 mi SW 10.4 mph - N/A   Clear
12:15 PM 73.4 °F 55.4 °F 53% 30.37 in 10.0 mi WSW 8.1 mph 16.1 mph N/A   Scattered Clouds
12:35 PM 75.2 °F 55.4 °F 50% 30.37 in 10.0 mi SSW 13.8 mph 19.6 mph N/A   Scattered Clouds
12:55 PM 77.0 °F 55.4 °F 47% 30.36 in 10.0 mi SSW 15.0 mph 19.6 mph N/A   Clear
1:15 PM 75.2 °F 55.4 °F 50% 30.35 in 10.0 mi SW 17.3 mph 20.7 mph N/A   Partly Cloudy
1:35 PM 73.4 °F 55.4 °F 53% 30.35 in 10.0 mi SW 10.4 mph - N/A   Mostly Cloudy
1:55 PM 73.4 °F 55.4 °F 53% 30.34 in 10.0 mi SW 12.7 mph - N/A   Scattered Clouds
2:15 PM 73.4 °F 55.4 °F 53% 30.32 in 10.0 mi SW 9.2 mph - N/A   Partly Cloudy
2:35 PM 77.0 °F 55.4 °F 47% 30.32 in 10.0 mi SW 15.0 mph 20.7 mph N/A   Partly Cloudy
2:55 PM 75.2 °F 53.6 °F 47% 30.32 in 10.0 mi SW 10.4 mph 19.6 mph N/A   Partly Cloudy
3:15 PM 77.0 °F 51.8 °F 41% 30.31 in 10.0 mi WSW 11.5 mph 20.7 mph N/A   Clear
3:35 PM 75.2 °F 57.2 °F 53% 30.31 in 10.0 mi South 13.8 mph 19.6 mph N/A   Scattered Clouds
3:55 PM 73.4 °F 57.2 °F 57% 30.30 in 10.0 mi SSE 16.1 mph - N/A   Mostly Cloudy
4:15 PM 69.8 °F 57.2 °F 64% 30.31 in 10.0 mi NNE 11.5 mph - N/A   Mostly Cloudy
4:35 PM 66.2 °F 57.2 °F 73% 30.33 in 10.0 mi NNW 8.1 mph - N/A   Overcast
4:55 PM 62.6 °F 59.0 °F 88% 30.34 in 10.0 mi NNW 11.5 mph - N/A   Mostly Cloudy
5:15 PM 60.8 °F 57.2 °F 88% 30.33 in 10.0 mi North 6.9 mph - N/A   Mostly Cloudy
5:35 PM 59.0 °F 57.2 °F 94% 30.31 in 1.0 mi NNE 8.1 mph - 0.14 in   Overcast
5:55 PM 59.0 °F 59.0 °F 100% 30.33 in 5.0 mi WNW 4.6 mph - 0.18 in   Overcast
6:15 PM 59.0 °F 57.2 °F 94% 30.34 in 5.0 mi SSE 8.1 mph - 0.02 in   Overcast
6:35 PM 59.0 °F 57.2 °F 94% 30.32 in 5.0 mi ESE 6.9 mph - 0.03 in   Overcast
6:55 PM 59.0 °F 57.2 °F 94% 30.34 in 9.0 mi South 5.8 mph - 0.05 in   Overcast
7:15 PM 59.0 °F 57.2 °F 94% 30.35 in 6.0 mi South 4.6 mph - N/A   Mostly Cloudy
7:35 PM 59.0 °F 57.2 °F 94% 30.35 in 9.0 mi SSE 4.6 mph - 0.01 in   Mostly Cloudy
7:55 PM 59.0 °F 57.2 °F 94% 30.34 in 5.0 mi East 4.6 mph - 0.03 in   Mostly Cloudy
8:15 PM 59.0 °F 59.0 °F 100% 30.33 in 10.0 mi East 10.4 mph - N/A   Overcast
8:35 PM 59.0 °F 57.2 °F 94% 30.33 in 10.0 mi East 8.1 mph - N/A   Mostly Cloudy
8:55 PM 59.0 °F 57.2 °F 94% 30.32 in 10.0 mi SSE 5.8 mph - 0.01 in   Mostly Cloudy
9:15 PM 59.0 °F 57.2 °F 94% 30.33 in 5.0 mi ESE 3.5 mph - 0.02 in   Overcast
9:35 PM 59.0 °F 57.2 °F 94% 30.33 in 9.0 mi SSE 5.8 mph - 0.03 in   Overcast
9:55 PM 59.0 °F 57.2 °F 94% 30.34 in 10.0 mi SSW 8.1 mph - 0.03 in   Scattered Clouds
10:15 PM 59.0 °F 57.2 °F 94% 30.32 in 10.0 mi South 5.8 mph - N/A   Scattered Clouds
10:35 PM 59.0 °F 57.2 °F 94% 30.31 in 10.0 mi SSE 6.9 mph - N/A   Clear
10:55 PM 59.0 °F 57.2 °F 94% 30.30 in 10.0 mi Calm Calm - N/A   Scattered Clouds
11:15 PM 59.0 °F 57.2 °F 94% 30.30 in 10.0 mi SE 3.5 mph - N/A   Partly Cloudy
11:35 PM 57.2 °F 55.4 °F 94% 30.29 in 10.0 mi SSE 4.6 mph - N/A   Clear
11:55 PM 57.2 °F 55.4 °F 94% 30.29 in 10.0 mi SSE 6.9 mph - N/A   Clear